Printer-friendly version

IAU Minor Planet Center

Minor Planet Center

MPEC 2006-G15 : 2006 GD

The following Minor Planet Electronic Circular may be linked-to from your own Web pages, but must not otherwise be redistributed electronically.


Read MPEC 2006-G14 Read MPEC 2006-G16


M.P.E.C. 2006-G15                                Issued 2006 Apr. 3, 19:33 UT

     The Minor Planet Electronic Circulars contain information on unusual
         minor planets and routine data on comets.  They are published
   on behalf of Commission 20 of the International Astronomical Union by the
          Minor Planet Center, Smithsonian Astrophysical Observatory,
                          Cambridge, MA 02138, U.S.A.

                  Supported in part by the Brinson Foundation
                  Supported in part by the TABASGO Foundation
             Prepared using the Tamkin Foundation Computer Network

                              MPC@CFA.HARVARD.EDU
          URL http://cfa-www.harvard.edu/iau/mpc.html  ISSN 1523-6714

                                    2006 GD

Observations:
     K06G00D* C2006 04 02.28956 11 49 07.24 -00 47 04.0          18.6 V EG015G96
     K06G00D  C2006 04 02.29574 11 49 07.50 -00 46 57.0          18.6 V EG015G96
     K06G00D  C2006 04 02.30167 11 49 07.75 -00 46 50.4          18.6 V EG015G96
     K06G00D  C2006 04 02.30731 11 49 08.00 -00 46 44.0          18.6 V EG015G96
     K06G00D  C2006 04 02.35874 11 49 10.16 -00 45 46.5          19.3   EG015704
     K06G00D  C2006 04 02.37123 11 49 10.75 -00 45 32.8          19.6   EG015704
     K06G00D  C2006 04 02.39645 11 49 11.92 -00 45 02.9          18.8   EG015704
     K06G00D  C2006 04 02.92370 11 49 40.50 -00 35 13.5                 EG015J95
     K06G00D  C2006 04 02.92621 11 49 40.62 -00 35 10.8                 EG015J95
     K06G00D  C2006 04 02.92873 11 49 40.73 -00 35 07.8          18.8 R EG015J95
     K06G00D  C2006 04 03.06852 11 49 48.46 -00 32 27.1          18.1 V EG015H98
     K06G00D  C2006 04 03.07635 11 49 48.90 -00 32 18.4          17.8 V EG015H98
     K06G00D  C2006 04 03.09134 11 49 49.59 -00 32 02.2          18.4 V EG015H98
     K06G00D  C2006 04 03.10145 11 49 50.01 -00 31 50.8          18.2 V EG015H98
     K06G00D  C2006 04 03.56369 11 50 14.84 -00 23 00.3          18.9 V EG015D35
     K06G00D  C2006 04 03.56830 11 50 15.04 -00 22 55.3          18.9 V EG015D35
     K06G00D  C2006 04 03.57291 11 50 15.25 -00 22 49.9          19.1 V EG015D35

Observer details:
704 Lincoln Laboratory ETS, New Mexico.  Observers M. Bezpalko, L. Manguso,
    D. Torres, R. Kracke, M. Blythe, H. Love, G. Spitz.  Measurers J. Stuart,
    J. Kommers.  1.0-m f/2.15 reflector + CCD.
D35 Lulin Observatory.  Observers C. S. Lin, Q. Ye.  Measurer Q. Ye.  0.40-m
    f/8.8 Ritchey-Chretien + CCD.
G96 Mt. Lemmon Survey.  Observers E. J. Christensen, A. D. Grauer.  Measurers
    E. C. Beshore, E. J. Christensen, G. J. Garradd, A. R. Gibbs, A. D. Grauer,
    R. E. Hill, R. A. Kowalski, S. M. Larson, R. H. McNaught.  1.5-m reflector
    + CCD.
H98 Dark Rosanne Obs., Middlefield.  Observer R. Krajewski Tele:860-349-8726.
    0.20-m f/4 reflector + CCD.
J95 Great Shefford.  Observer P. Birtwhistle.  0.40-m f/6.0 Schmidt-Cassegrain
    + CCD.

Orbital elements:
2006 GD
Epoch 2006 Mar. 6.0 TT = JDT 2453800.5                  MPC
M 350.62526              (2000.0)            P               Q
n   0.16042849     Peri.   21.13809     -0.83959526     +0.54244520
a   3.3544015      Node   191.84201     -0.51638506     -0.81349397
e   0.6033328      Incl.    8.08500     -0.16860091     -0.20971591
P   6.14           H   19.2           G   0.15           U   8
Residuals in seconds of arc
060402 G96  0.0   0.0     060402 704  0.2+  0.9+    060403 H98  0.2+  0.9-
060402 G96  0.0   0.0     060402 J95  0.1+  0.1+    060403 H98  0.6-  0.9-
060402 G96  0.1-  0.1-    060402 J95  0.2+  0.0     060403 D35  0.0   0.3+
060402 G96  0.1-  0.0     060402 J95  0.1+  0.1+    060403 D35  0.2-  0.1+
060402 704  0.5-  0.1-    060403 H98  0.8-  0.0     060403 D35  0.2-  0.3+
060402 704  0.0   0.5-    060403 H98  0.3+  0.1-

Ephemeris:
2006 GD                  a,e,i = 3.35, 0.60, 8                   q = 1.3306
Date    TT    R. A. (2000) Decl.     Delta      r     Elong.  Phase     V
2006 03 26    11 43.80   -02 59.3    0.408    1.402   171.2     6.2    18.5
2006 04 05    11 51.57   +00 04.3    0.382    1.370   163.0    12.3    18.5
2006 04 15    12 03.20   +03 08.3    0.371    1.348   154.5    18.7    18.7
2006 04 25    12 19.08   +05 42.0    0.373    1.334   146.8    24.4    18.8
2006 05 05    12 38.85   +07 21.1    0.388    1.331   140.5    28.8    19.0
2006 05 15    13 01.52   +07 54.9    0.414    1.337   135.4    32.0    19.3
2006 05 25    13 25.74   +07 26.7    0.450    1.354   131.5    34.1    19.5
2006 06 04    13 50.46   +06 06.9    0.498    1.379   128.3    35.3    19.8
2006 06 14    14 14.97   +04 10.6    0.557    1.414   125.5    35.8    20.1
2006 06 24    14 38.81   +01 52.8    0.628    1.455   122.8    36.0    20.5
2006 07 04    15 01.93   -00 34.4    0.710    1.504   120.0    35.8    20.8
2006 07 14    15 24.37   -03 01.3    0.805    1.557   117.1    35.5    21.1
2006 07 24    15 46.19   -05 21.2    0.911    1.615   113.8    35.1    21.5
2006 08 03    16 07.55   -07 30.1    1.029    1.677   110.3    34.6    21.8

Kyle E. Smalley              (C) Copyright 2006 MPC           M.P.E.C. 2006-G15

Read MPEC 2006-G14 Read MPEC 2006-G16


Our Web policy. Index to the CBAT/MPC/ICQ pages.


Valid HTML 4.01!